Simultaneous Nadir Overpasses (SNOs) Predictions

Prediction of SNOs between GOES-17 and AQUA Satellite Orbit:

Table of predicted SNOs for the next 14.0 days since TLE Epoch: 3/18/2023
Index Date Time (GOES-17) GOES-17 Lat,Lon AQUA Lat,Lon Distance(km) Time Diff (sec)
1 03/18/2023 08:52:05 0.02,-104.74 0.30,-106.15 160.14 80
2 03/20/2023 08:35:49 0.01,-104.72 -0.41,-102.84 215.32 80
3 03/20/2023 20:56:50 -0.01,-104.73 -0.70,-107.93 363.25 80
4 03/22/2023 20:45:54 -0.01,-104.72 0.02,-104.61 13.32 80
5 03/24/2023 20:32:16 -0.01,-104.72 0.74,-101.29 390.40 80
6 03/25/2023 08:53:07 0.01,-104.70 0.38,-106.33 186.22 80
7 03/27/2023 08:36:48 -0.00,-104.69 -0.34,-103.01 190.83 80
8 03/27/2023 20:57:50 0.01,-104.70 -0.72,-108.11 387.86 80
9 03/29/2023 20:44:10 0.00,-104.69 0.01,-104.78 10.33 80
10 03/31/2023 20:33:08 -0.01,-104.68 0.68,-101.43 368.88 80
